When you browse on this site, cookies collect data to enhance your experience and personalize the content and advertising you see.
Visit our Privacy Policy to learn more. By continuing to use the site, you agree to this use of cookies and data.
  • In United Kingdom
  • List of Countries
  • For 7 days
  • Water Temperature
  • Satellite Maps
  • Weather Map
  • Weather Widgets
  • user-avatar
    Login

    Hourly Weather Winchester

    Today, 14 December, Friday

    Time Temperature Precipitation Wind Pressure Humidity
    00:00 -2°C° 0 mm 4 mps 759 mmHg 79%
    01:00 -2°C° 0 mm 4 mps 759 mmHg 79%
    02:00 -2°C° 0 mm 4 mps 759 mmHg 80%
    03:00 -2°C° 0 mm 4 mps 759 mmHg 80%
    04:00 -2°C° 0 mm 4 mps 760 mmHg 79%
    05:00 -2°C° 0 mm 4 mps 760 mmHg 79%
    06:00 -2°C° 0 mm 4 mps 760 mmHg 80%
    07:00 -2°C° 0 mm 4 mps 760 mmHg 79%
    08:00 -2°C° 0 mm 4 mps 760 mmHg 79%
    09:00 -1°C° 0 mm 3 mps 760 mmHg 78%
    10:00 0°C° 0 mm 4 mps 760 mmHg 74%
    11:00 +1°C° 0 mm 4 mps 761 mmHg 69%
    12:00 +3°C° 0 mm 4 mps 761 mmHg 65%
    13:00 +3°C° 0 mm 4 mps 761 mmHg 67%
    14:00 +3°C° 0 mm 3 mps 761 mmHg 69%
    15:00 +2°C° 0 mm 3 mps 761 mmHg 71%
    16:00 +2°C° 0 mm 3 mps 761 mmHg 74%
    17:00 0°C° 0 mm 4 mps 760 mmHg 76%
    18:00 -1°C° 0 mm 4 mps 760 mmHg 78%
    19:00 -1°C° 0 mm 4 mps 760 mmHg 78%
    20:00 -1°C° 0 mm 4 mps 760 mmHg 78%
    21:00 -1°C° 0 mm 4 mps 760 mmHg 78%
    22:00 0°C° 0 mm 4 mps 760 mmHg 77%
    23:00 0°C° 0 mm 5 mps 760 mmHg 76%

    Tomorrow, 15 December, Saturday

    Time Temperature Precipitation Wind Pressure Humidity
    00:00 0°C° 0 mm 5 mps 760 mmHg 75%
    01:00 +1°C° 0 mm 6 mps 759 mmHg 74%
    02:00 +1°C° 0 mm 6 mps 758 mmHg 73%
    03:00 0°C° 0 mm 7 mps 757 mmHg 73%
    04:00 0°C° 0.3 mm 7 mps 757 mmHg 74%
    05:00 0°C° 0.3 mm 8 mps 756 mmHg 75%
    06:00 0°C° 0.3 mm 8 mps 756 mmHg 76%
    07:00 0°C° 0.2 mm 9 mps 755 mmHg 78%
    08:00 0°C° 0.2 mm 9 mps 754 mmHg 79%
    09:00 +1°C° 0.2 mm 9 mps 754 mmHg 81%
    10:00 +1°C° 0.4 mm 10 mps 752 mmHg 83%
    11:00 +1°C° 0.4 mm 10 mps 751 mmHg 84%
    12:00 +2°C° 0.4 mm 10 mps 750 mmHg 86%
    13:00 +2°C° 1.6 mm 10 mps 749 mmHg 88%
    14:00 +3°C° 1.6 mm 10 mps 748 mmHg 91%
    15:00 +3°C° 1.6 mm 10 mps 746 mmHg 93%
    16:00 +6°C° 2.5 mm 10 mps 745 mmHg 93%
    17:00 +7°C° 2.5 mm 10 mps 744 mmHg 94%
    18:00 +8°C° 2.5 mm 10 mps 742 mmHg 95%
    19:00 +8°C° 1.2 mm 11 mps 742 mmHg 90%
    20:00 +8°C° 1.2 mm 11 mps 741 mmHg 86%
    21:00 +8°C° 1.2 mm 12 mps 740 mmHg 81%
    22:00 +7°C° 0 mm 12 mps 741 mmHg 80%
    23:00 +7°C° 0 mm 11 mps 742 mmHg 79%

    Day after tomorrow, 16 December, Sunday

    Time Temperature Precipitation Wind Pressure Humidity
    00:00 +6°C° 0 mm 11 mps 743 mmHg 79%
    01:00 +5°C° 0 mm 10 mps 744 mmHg 79%
    02:00 +5°C° 0 mm 9 mps 745 mmHg 79%
    03:00 +4°C° 0 mm 8 mps 746 mmHg 80%
    04:00 +4°C° 0 mm 7 mps 747 mmHg 81%
    05:00 +4°C° 0 mm 6 mps 747 mmHg 83%
    06:00 +3°C° 0 mm 6 mps 748 mmHg 85%
    07:00 +3°C° 0.1 mm 5 mps 748 mmHg 86%
    08:00 +3°C° 0.1 mm 5 mps 749 mmHg 86%
    09:00 +3°C° 0.1 mm 5 mps 749 mmHg 86%
    10:00 +5°C° 0 mm 5 mps 749 mmHg 83%
    11:00 +6°C° 0 mm 5 mps 749 mmHg 79%
    12:00 +7°C° 0 mm 5 mps 749 mmHg 76%
    13:00 +7°C° 0 mm 5 mps 749 mmHg 78%
    14:00 +7°C° 0 mm 4 mps 749 mmHg 80%
    15:00 +7°C° 0 mm 4 mps 749 mmHg 82%
    16:00 +6°C° 0.3 mm 4 mps 749 mmHg 85%
    17:00 +6°C° 0.3 mm 4 mps 750 mmHg 87%
    18:00 +5°C° 0.3 mm 4 mps 750 mmHg 89%
    19:00 +5°C° 0.2 mm 4 mps 751 mmHg 90%
    20:00 +5°C° 0.2 mm 3 mps 751 mmHg 90%
    21:00 +4°C° 0.2 mm 3 mps 751 mmHg 91%
    22:00 +4°C° 0.1 mm 3 mps 751 mmHg 91%
    23:00 +4°C° 0.1 mm 3 mps 752 mmHg 91%

    17 December, Monday

    Time Temperature Precipitation Wind Pressure Humidity
    00:00 +3°C° 0.1 mm 3 mps 752 mmHg 91%
    01:00 +3°C° 0 mm 3 mps 753 mmHg 91%
    02:00 +3°C° 0 mm 3 mps 753 mmHg 91%
    03:00 +3°C° 0 mm 3 mps 753 mmHg 90%
    04:00 +3°C° 0 mm 3 mps 754 mmHg 91%
    05:00 +3°C° 0 mm 3 mps 754 mmHg 91%
    06:00 +3°C° 0 mm 4 mps 755 mmHg 91%
    07:00 +3°C° 0 mm 3 mps 755 mmHg 91%
    08:00 +3°C° 0 mm 3 mps 756 mmHg 90%
    09:00 +3°C° 0 mm 3 mps 756 mmHg 90%
    10:00 +5°C° 0 mm 3 mps 757 mmHg 86%
    11:00 +6°C° 0 mm 4 mps 757 mmHg 83%
    12:00 +8°C° 0 mm 5 mps 757 mmHg 79%
    13:00 +8°C° 0 mm 5 mps 757 mmHg 81%
    14:00 +8°C° 0 mm 5 mps 757 mmHg 83%
    15:00 +7°C° 0 mm 5 mps 757 mmHg 85%
    16:00 +7°C° 0 mm 6 mps 757 mmHg 86%
    17:00 +7°C° 0 mm 6 mps 756 mmHg 87%
    18:00 +6°C° 0 mm 7 mps 756 mmHg 88%
    19:00 +8°C° 0 mm 7 mps 756 mmHg 88%
    20:00 +7°C° 0 mm 8 mps 756 mmHg 88%
    21:00 +7°C° 0 mm 8 mps 755 mmHg 87%
    22:00 +8°C° 0.1 mm 9 mps 755 mmHg 87%
    23:00 +8°C° 0.1 mm 9 mps 755 mmHg 86%

    18 December, Tuesday

    Time Temperature Precipitation Wind Pressure Humidity
    00:00 +8°C° 0.1 mm 10 mps 754 mmHg 86%
    01:00 +8°C° 0.1 mm 10 mps 754 mmHg 85%
    02:00 +8°C° 0.1 mm 10 mps 753 mmHg 85%
    03:00 +8°C° 0.1 mm 11 mps 752 mmHg 85%
    04:00 +8°C° 0 mm 11 mps 752 mmHg 83%
    05:00 +8°C° 0 mm 11 mps 751 mmHg 81%
    06:00 +8°C° 0 mm 11 mps 750 mmHg 80%
    07:00 +8°C° 0 mm 11 mps 749 mmHg 78%
    08:00 +7°C° 0 mm 12 mps 748 mmHg 76%
    09:00 +7°C° 0 mm 12 mps 747 mmHg 74%
    10:00 +7°C° 1 mm 13 mps 746 mmHg 77%
    11:00 +5°C° 1 mm 13 mps 745 mmHg 80%
    12:00 +5°C° 1 mm 13 mps 744 mmHg 82%
    13:00 +7°C° 1.1 mm 12 mps 744 mmHg 82%
    14:00 +7°C° 1.1 mm 11 mps 743 mmHg 82%
    15:00 +8°C° 1.1 mm 10 mps 743 mmHg 82%
    16:00 +7°C° 0.5 mm 9 mps 744 mmHg 82%
    17:00 +7°C° 0.5 mm 9 mps 744 mmHg 82%
    18:00 +6°C° 0.5 mm 8 mps 745 mmHg 82%
    19:00 +6°C° 0 mm 7 mps 745 mmHg 82%
    20:00 +5°C° 0 mm 7 mps 746 mmHg 82%
    21:00 +5°C° 0 mm 7 mps 746 mmHg 82%
    22:00 +5°C° 0.1 mm 7 mps 747 mmHg 83%
    23:00 +5°C° 0.1 mm 7 mps 747 mmHg 84%

    19 December, Wednesday

    Time Temperature Precipitation Wind Pressure Humidity
    00:00 +5°C° 0.1 mm 6 mps 747 mmHg 84%
    01:00 +5°C° 0.3 mm 6 mps 747 mmHg 84%
    02:00 +5°C° 0.3 mm 6 mps 747 mmHg 83%
    03:00 +5°C° 0.3 mm 6 mps 747 mmHg 83%
    04:00 +4°C° 0.1 mm 6 mps 747 mmHg 82%
    05:00 +4°C° 0.1 mm 6 mps 747 mmHg 82%
    06:00 +4°C° 0.1 mm 6 mps 747 mmHg 81%
    07:00 +4°C° 0.1 mm 6 mps 748 mmHg 81%
    08:00 +4°C° 0.1 mm 6 mps 748 mmHg 81%
    09:00 +4°C° 0.1 mm 6 mps 748 mmHg 81%
    10:00 +5°C° 0.1 mm 7 mps 748 mmHg 78%
    11:00 +6°C° 0.1 mm 7 mps 748 mmHg 74%
    12:00 +6°C° 0.1 mm 8 mps 748 mmHg 71%
    13:00 +6°C° 0.1 mm 8 mps 747 mmHg 73%
    14:00 +6°C° 0.1 mm 7 mps 747 mmHg 74%
    15:00 +6°C° 0.1 mm 7 mps 747 mmHg 75%
    16:00 +5°C° 0.1 mm 7 mps 747 mmHg 76%
    17:00 +5°C° 0.1 mm 7 mps 746 mmHg 78%
    18:00 +5°C° 0.1 mm 7 mps 746 mmHg 79%
    19:00 +5°C° 0.1 mm 7 mps 746 mmHg 79%
    20:00 +5°C° 0.1 mm 8 mps 746 mmHg 80%
    21:00 +5°C° 0.1 mm 8 mps 746 mmHg 81%
    22:00 +5°C° 0.3 mm 8 mps 745 mmHg 80%
    23:00 +5°C° 0.3 mm 8 mps 745 mmHg 80%
    Show more